{"data":{"norad_id":64852,"intl_designator":"2025-152L","name":"STARLINK-34564","alt_names":[],"object_type":"PAYLOAD","status":"ACTIVE","operator":null,"country":"US","launch_date":"2025-07-19","launch_site_code":"AFWTR","launch_vehicle":null,"mission":null,"orbit_class":"UNKNOWN","rcs_meters":null,"size_class":null,"mass_kg":null,"dimensions":null,"purposes":["comms"],"wikipedia_slug":null,"has_3d_model":false,"image_url":null,"decayed_at":null,"tle_current":{"epoch":"2026-09-20T12:54:06.083424Z","epoch_age_seconds":121049,"freshness":"FRESH","line1":"1 64852U 25152L   26263.53757041  .00011068  00000+0  34458-3 0  9993","line2":"2 64852  97.2832 114.1540 0002140  86.6499 273.4988 15.33450002 64838","mean_motion":15.33450002,"eccentricity":0.000214,"inclination_deg":97.2832,"raan_deg":114.154,"arg_perigee_deg":86.6499,"mean_anomaly_deg":273.4988,"bstar":0.00034458,"rev_number":6483,"period_min":93.905898341771,"perigee_km":464.06374771329,"apogee_km":466.9928364583,"semimajor_km":6843.6652920858,"source":"CELESTRAK","updated_at":"2026-09-21T09:00:35.450409Z"}}}